Yuzhno-Sakhalinsk, Russia

7:03 AM +10 on May 24, 2017 (GMT +1000)
Khomutovo

Weather History for UHSS - November, 2012

Change the Weather History Date:

Monday, November 26, 2012

  Actual Average Record
Temperature  
Mean Temperature 22 °F -  
Max Temperature 30 °F 30 °F 48 °F (1997)
Min Temperature 15 °F 14 °F -4 °F (2016)
Degree Days  
Heating Degree Days 42    
Moisture  
Dew Point 24 °F    
Average Humidity 96    
Maximum Humidity 100    
Minimum Humidity 93    
Precipitation  
Precipitation 0.00 in - - ()
Sea Level Pressure  
Sea Level Pressure 29.65 in    
Wind  
Wind Speed 4 mph ()    
Max Wind Speed 16 mph    
Max Gust Speed 27 mph    
Visibility 2.3 miles    
Events Snow    
Averages and records for this station are not official NWS values.
T = Trace of Precipitation, MM = Missing Value Source: Averaged Metar Reports

Daily Weather History Graph

Daily Weather History Graph

Search for Another Location

Airport or City:

Trip Planner

Search our weather history database for the weather conditions in past years. The results will help you decide how hot, cold, wet, or windy it might be!

Date:

Astronomy

Nov. 26, 2012 Rise Set
Actual Time 8:47 AM +11 5:45 PM +11
Civil Twilight 8:13 AM +11 6:19 PM +11
Nautical Twilight 7:35 AM +11 6:56 PM +11
Astronomical Twilight 6:59 AM +11 7:33 PM +11
Moon 4:19 PM +11 (11/26) 6:15 AM +11 (11/26)
Length of Visible Light 10h 06m
Length of Day
8h 57m
Waxing Gibbous, 94% of the Moon is Illuminated
Nov 26
Waxing Gibbous
Nov 29
Full
Dec 7
Last Quarter
Dec 13
New
Dec 20
First Quarter

Hourly Weather History & Observations

Time (+11) Temp. Windchill Dew Point Humidity Pressure Visibility Wind Dir Wind Speed Gust Speed Precip Events Conditions
12:00 AM 21.2 °F - 19.4 °F 93% 29.86 in 6.2 mi NNE 2.2 mph - N/A Snow Light Snow Showers
1:00 AM 21.2 °F - 19.4 °F 93% 29.86 in 3.1 mi Calm Calm - N/A   Smoke
2:00 AM 21.2 °F - 19.4 °F 93% 29.86 in 3.1 mi ENE 2.2 mph - N/A   Smoke
3:00 AM 21.2 °F - 19.4 °F 93% 29.86 in 3.1 mi WNW 2.2 mph - N/A   Smoke
4:00 AM 21.2 °F - 19.4 °F 93% 29.86 in 3.1 mi Calm Calm - N/A   Smoke
5:00 AM 18 °F - 17 °F 96% 29.83 in 2 mi Calm Calm - - Snow Light Snow Showers
5:00 AM 17.6 °F - 17.6 °F 100% 29.80 in 3.1 mi Calm Calm - N/A   Smoke
6:00 AM 17.6 °F - 15.8 °F 93% 29.80 in 3.1 mi Calm Calm - N/A   Smoke
6:30 AM 15.8 °F - 15.8 °F 100% 29.80 in 3.1 mi ENE 2.2 mph - N/A   Smoke
7:00 AM 19.4 °F 12.9 °F 17.6 °F 93% 29.77 in 3.1 mi East 4.5 mph - N/A   Smoke
7:30 AM 17.6 °F - 15.8 °F 93% 29.77 in 3.1 mi North 2.2 mph - N/A   Smoke
8:00 AM 15.8 °F 8.7 °F 15.8 °F 100% 29.77 in 3.1 mi North 4.5 mph - N/A   Smoke
8:30 AM 17.6 °F 10.8 °F 15.8 °F 93% 29.77 in 6.2 mi NNE 4.5 mph - N/A   Scattered Clouds
9:00 AM 17.6 °F - 15.8 °F 93% 29.77 in 6.2 mi NNE 2.2 mph - N/A   Scattered Clouds
9:30 AM 17.6 °F 10.8 °F 15.8 °F 93% 29.77 in 6.2 mi NNE 4.5 mph - N/A   Scattered Clouds
10:00 AM 19.4 °F 12.9 °F 17.6 °F 93% 29.74 in 6.2 mi NNE 4.5 mph - N/A   Scattered Clouds
10:30 AM 19.4 °F 12.9 °F 19.4 °F 100% 29.74 in 6.2 mi North 4.5 mph - N/A   Scattered Clouds
11:00 AM 20 °F - 19 °F 94% 29.75 in 2 mi Calm Calm - -   Haze
11:00 AM 23.0 °F - 21.2 °F 93% 29.74 in 3.7 mi Calm Calm - N/A   Scattered Clouds
11:30 AM 24.8 °F - 23.0 °F 93% 29.71 in - NNE 2.2 mph - N/A Snow Snow Showers
12:00 PM 26.6 °F 21.3 °F 24.8 °F 93% 29.71 in - North 4.5 mph - N/A Snow Snow Showers
12:30 PM 26.6 °F 21.3 °F 26.6 °F 100% 29.68 in - NNE 4.5 mph - N/A Snow Snow Showers
1:00 PM 28.4 °F 23.4 °F 26.6 °F 93% 29.65 in - North 4.5 mph - N/A Snow Snow Showers
1:30 PM 28.4 °F 23.4 °F 26.6 °F 93% 29.62 in 0.7 mi North 4.5 mph - N/A Snow Snow Showers
2:00 PM 28.4 °F 21.4 °F 28.4 °F 100% 29.62 in 0.8 mi NNE 6.7 mph - N/A Snow Snow Showers
2:30 PM 28.4 °F 21.4 °F 28.4 °F 100% 29.59 in 1.4 mi NNE 6.7 mph - N/A Snow Snow Showers
3:00 PM 30.2 °F 23.5 °F 28.4 °F 93% 29.59 in 0.8 mi NNE 6.7 mph - N/A Snow Snow Showers
3:30 PM 30.2 °F 22.1 °F 30.2 °F 100% 29.56 in 0.7 mi NNE 8.9 mph - N/A Snow Snow Showers
4:00 PM 30.2 °F 22.1 °F 30.2 °F 100% 29.56 in 0.6 mi NNE 8.9 mph - N/A Snow Snow Showers
4:30 PM 30.2 °F 20.9 °F 30.2 °F 100% 29.53 in 0.6 mi NNE 11.2 mph - N/A Snow Heavy Snow Showers
5:00 PM 29 °F - 28 °F 95% 29.57 in 1 mi North 8.9 mph - - Snow Heavy Snow Showers
5:00 PM 30.2 °F 22.1 °F 30.2 °F 100% 29.53 in 0.6 mi NNE 8.9 mph - N/A Snow Snow Showers
5:30 PM 30.2 °F 19.9 °F 30.2 °F 100% 29.53 in 0.6 mi North 13.4 mph - N/A Snow Snow Showers
6:00 PM 30.2 °F 19.1 °F 28.4 °F 93% 29.53 in 0.6 mi NNE 15.7 mph - N/A Snow Heavy Snow Showers
6:30 PM 30.2 °F 19.1 °F 28.4 °F 93% 29.50 in 0.8 mi North 15.7 mph - N/A Snow Snow Showers
7:00 PM 30.2 °F 19.1 °F 28.4 °F 93% 29.50 in 1.1 mi North 15.7 mph - N/A Snow Snow Showers
7:30 PM 30.2 °F 19.9 °F 28.4 °F 93% 29.50 in 1.1 mi North 13.4 mph 24.6 mph N/A Snow Snow Showers
8:00 PM 30.2 °F 19.9 °F 28.4 °F 93% 29.47 in 1.1 mi North 13.4 mph 24.6 mph N/A Snow Snow Showers
8:30 PM 28.4 °F 16.7 °F 28.4 °F 100% 29.47 in 0.9 mi North 15.7 mph 26.8 mph N/A Snow Snow Showers
9:00 PM 28.4 °F 17.6 °F 28.4 °F 100% 29.47 in 0.7 mi North 13.4 mph 24.6 mph N/A Snow Snow Showers
9:30 PM 28.4 °F 17.6 °F 28.4 °F 100% 29.44 in 0.8 mi NNE 13.4 mph 24.6 mph N/A Snow Snow Showers
10:00 PM 28.4 °F 17.6 °F 28.4 °F 100% 29.42 in 0.9 mi NNE 13.4 mph 24.6 mph N/A Snow Snow Showers
11:00 PM 29 °F - 28 °F 94% 29.43 in 1 mi North 11.2 mph - - Snow Heavy Snow Showers
11:00 PM 30.2 °F 19.9 °F 28.4 °F 93% 29.39 in 1.1 mi NNE 13.4 mph 24.6 mph N/A Snow Snow Showers